Notices

What's New in latest Release from April 7th, 2021:

- Updated Glossary, including Speed of Maximum Gust, and Total Hourly Precipitation

- Updated national and regional climate services offices contacts and prices information

- Addition of station inventory lists for 1981-2010, 1971-2000, and 1961-1990 Normals.

If you haven't already, please take our survey and provide feedback about our website: https://eccc.sondage-survey.ca/f/LanguageSelection.aspx?s=442ca660-fcf1-47c0-95a9-59707d6fd709

Hourly Data Report for March 15, 2003

TORONTO CITY
ONTARIO

43°40'00.000" N
79°24'00.000" W
112.50 m
6158355
71508
XTO

Download Data

Hourly Data (March 2003)
Hourly Data Report for March 15, 2003
TIME
LST
Temp Definition
°C
Dew Point Definition
°C
Rel Hum Definition
%
Precip. Amount Definition
mm

Wind Dir Definition
10's deg

Wind Spd Definition
km/h
Visibility Definition
km
Stn Press Definition
kPa
Hmdx Definition


Wind Chill Definition


Weather Definition


00:00 0.3 -5.4 66   LegendMM LegendMM LegendMM 100.52     LegendNANA
01:00 0.3 -6.2 62   LegendMM LegendMM LegendMM 100.47     LegendNANA
02:00 0.0 -8.8 52   LegendMM LegendMM LegendMM 100.48     LegendNANA
03:00 -0.6 -6.4 65   LegendMM LegendMM LegendMM 100.39     LegendNANA
04:00 -0.5 -5.2 70   LegendMM LegendMM LegendMM 100.45     LegendNANA
05:00 -0.9 -5.2 73   LegendMM LegendMM LegendMM 100.47     LegendNANA
06:00 -0.1 -3.9 76   LegendMM LegendMM LegendMM 100.53     LegendNANA
07:00 -0.3 -3.6 78   LegendMM LegendMM LegendMM 100.55     LegendNANA
08:00 0.9 -3.5 72   LegendMM LegendMM LegendMM 100.56     LegendNANA
09:00 3.6 -4.7 55   LegendMM LegendMM LegendMM 100.57     LegendNANA
10:00 5.0 -3.4 55   LegendMM LegendMM LegendMM 100.53     LegendNANA
11:00 5.3 -4.1 51   LegendMM LegendMM LegendMM 100.52     LegendNANA
12:00 4.0 -3.8 57   LegendMM LegendMM LegendMM 100.51     LegendNANA
13:00 5.5 -5.0 47   LegendMM LegendMM LegendMM 100.48     LegendNANA
14:00 5.5 -2.9 55   LegendMM LegendMM LegendMM 100.44     LegendNANA
15:00 3.6 -1.3 70   LegendMM LegendMM LegendMM 100.44     LegendNANA
16:00 3.4 -1.1 72   LegendMM LegendMM LegendMM 100.40     LegendNANA
17:00 2.8 -1.1 75   LegendMM LegendMM LegendMM 100.38     LegendNANA
18:00 2.3 -2.7 69   LegendMM LegendMM LegendMM 100.39     LegendNANA
19:00 2.0 -4.0 64   LegendMM LegendMM LegendMM 100.39     LegendNANA
20:00 1.6 -3.0 71     0 LegendMM 100.38     LegendNANA
21:00 1.4 -1.9 79   LegendMM LegendMM LegendMM 100.36     LegendNANA
22:00 1.3 -2.0 79   LegendMM LegendMM LegendMM 100.32     LegendNANA
23:00 1.4 -1.9 79     0 LegendMM 100.26     LegendNANA

Notes on Data Quality.

Legend

  • E = Estimated
  • M = Missing
  • NA = Not Available*
  • [empty] = Indicates an unobserved value
Date modified: